Location: Banska Bystrica
(48.7333°N, 19.1500°E)
Time: 11:33:32
(UTC+01:00)

ISS - Pass Details

Date: 28 January 2021
Orbit: 417 x 422 km, 51.6° (Epoch: 07 March)

Event Time Altitude Azimuth Distance (km) Brightness Sun altitude
Rises 17:12:20 0° 267° (W) 2,369 1.8 -6.5°
Reaches altitude 10° 17:14:28 10° 272° (W) 1,507 0.4 -6.8°
Maximum altitude 17:17:48 55° 351° (N) 516 -3.4 -7.3°
Enters shadow 17:21:04 11° 70° (ENE) 1,481 -1.7 -7.8°
